Location: *
(17.3280°S, 114.7300°W)
Time: 10:25:45
(UTC+00:00)

Envisat - Pass Details

Date: 30 October 2020
Orbit: 764 x 766 km, 98.1° (Epoch: 28 November)

Event Time Altitude Azimuth Distance (km) Brightness Sun altitude
Rises 12:07:09 0° 45° (NE) 3,215 6.6 -13.1°
Reaches altitude 10° 12:10:01 10° 61° (ENE) 2,297 6.1 -12.5°
Maximum altitude 12:13:37 20° 107° (ESE) 1,728 6.0 -11.7°
Drops below altitude 10° 12:17:13 10° 152° (SSE) 2,313 6.2 -10.9°
Sets 12:20:05 0° 169° (SSE) 3,245 6.7 -10.2°
